Muscle Shoals, AL

2:37 AM CST on December 13, 2019 (GMT -0600)
Northwest Alabama Regional

Weather History for KMSL - October, 2019

Change the Weather History Date:

Friday, October 4, 2019

  Actual Average Record
Temperature  
Mean Temperature 82 °F 66 °F  
Max Temperature 93 °F 78 °F 93 °F (1909)
Min Temperature 70 °F 54 °F 33 °F (1974)
Degree Days  
Heating Degree Days 0 2  
Month to date heating degree days 0 8  
Since 1 July heating degree days 0 23  
Cooling Degree Days 17 3  
Month to date cooling degree days 74 15  
Year to date cooling degree days 2432 1817  
Growing Degree Days 32 (Base 50)    
Moisture  
Dew Point 61 °F    
Average Humidity 58    
Maximum Humidity 79    
Minimum Humidity 36    
Precipitation  
Precipitation 0.00 in 0.11 in 2.46 in (1932)
Month to date precipitation 0.00 0.43  
Year to date precipitation 46.52 39.86  
Snow  
Snow 0.00 in - - ()
Month to date snowfall 0.0  
Since 1 July snowfall 0.0  
Since 1 September snowfall 0.0  
Snow Depth 0.00 in    
Sea Level Pressure  
Sea Level Pressure 30.07 in    
Wind  
Wind Speed 8 mph (NNE)    
Max Wind Speed 13 mph    
Max Gust Speed 18 mph    
Visibility 10 miles    
Events      
T = Trace of Precipitation, MM = Missing Value Source: NWS Daily Summary

Daily Weather History Graph

Daily Weather History Graph

Search for Another Location

Airport or City:

Astronomy

Oct. 04, 2019 Rise Set
Actual Time 6:47 AM CDT 6:30 PM CDT
Civil Twilight 6:22 AM CDT 6:55 PM CDT
Nautical Twilight 5:52 AM CDT 7:24 PM CDT
Astronomical Twilight 5:23 AM CDT 7:54 PM CDT
Moon 1:05 PM CDT (10/4) 11:12 PM CDT (10/4)
Length of Visible Light 12h 33m
Length of Day
11h 43m
Waxing Crescent, 40% of the Moon is Illuminated
Oct 4
Waxing Crescent
Oct 5
First Quarter
Oct 13
Full
Oct 21
Last Quarter
Oct 27
New

Hourly Weather History & Observations

Time (CDT) Temp. Heat Index Dew Point Humidity Pressure Visibility Wind Dir Wind Speed Gust Speed Precip Events Conditions
12:53 AM 75.9 °F - 66.0 °F 71% 30.04 in 10.0 mi Calm Calm - N/A   Clear
1:53 AM 80.1 °F 82.1 °F 66.0 °F 62% 30.05 in 10.0 mi North 5.8 mph - N/A   Clear
2:53 AM 79.0 °F - 66.9 °F 66% 30.05 in 10.0 mi NNE 8.1 mph - N/A   Clear
3:53 AM 77.0 °F - 68.0 °F 74% 30.06 in 10.0 mi NNE 8.1 mph - N/A   Clear
4:53 AM 75.9 °F - 68.0 °F 76% 30.07 in 10.0 mi NNE 8.1 mph - N/A   Clear
5:53 AM 75.0 °F - 68.0 °F 79% 30.09 in 10.0 mi Variable 6.9 mph - N/A   Clear
6:53 AM 73.0 °F - 66.0 °F 79% 30.11 in 10.0 mi North 5.8 mph - N/A   Clear
7:53 AM 73.9 °F - 64.0 °F 71% 30.12 in 10.0 mi North 6.9 mph - N/A   Clear
8:53 AM 75.9 °F - 63.0 °F 64% 30.12 in 10.0 mi NE 8.1 mph - N/A   Clear
9:53 AM 80.1 °F 81.7 °F 64.0 °F 58% 30.12 in 10.0 mi ENE 8.1 mph - N/A   Clear
10:53 AM 84.0 °F 85.4 °F 64.0 °F 51% 30.12 in 10.0 mi NE 5.8 mph - N/A   Clear
11:53 AM 88.0 °F 89.6 °F 64.9 °F 46% 30.09 in 10.0 mi North 8.1 mph - N/A   Clear
12:53 PM 90.0 °F 91.3 °F 64.0 °F 42% 30.07 in 10.0 mi North 8.1 mph - N/A   Clear
1:53 PM 91.9 °F 93.3 °F 64.0 °F 39% 30.04 in 10.0 mi North 8.1 mph - N/A   Clear
2:53 PM 91.9 °F 92.5 °F 62.1 °F 37% 30.03 in 10.0 mi North 9.2 mph - N/A   Clear
3:53 PM 91.9 °F 91.8 °F 61.0 °F 35% 30.01 in 10.0 mi North 10.4 mph - N/A   Clear
4:53 PM 91.0 °F 90.5 °F 60.1 °F 35% 30.01 in 10.0 mi North 8.1 mph - N/A   Clear
5:53 PM 88.0 °F 87.1 °F 59.0 °F 37% 30.02 in 10.0 mi NNE 8.1 mph - N/A   Clear
6:53 PM 84.0 °F 82.9 °F 55.0 °F 37% 30.03 in 10.0 mi NNE 6.9 mph - N/A   Clear
7:53 PM 82.0 °F 81.3 °F 54.0 °F 38% 30.04 in 10.0 mi NNE 8.1 mph - N/A   Clear
8:53 PM 79.0 °F - 54.0 °F 42% 30.07 in 10.0 mi NNE 8.1 mph - N/A   Clear
9:53 PM 77.0 °F - 52.0 °F 42% 30.08 in 10.0 mi NNE 9.2 mph 17.3 mph N/A   Clear
10:53 PM 75.0 °F - 51.1 °F 43% 30.07 in 10.0 mi NE 6.9 mph - N/A   Clear
11:53 PM 73.0 °F - 50.0 °F 44% 30.06 in 10.0 mi NE 6.9 mph - N/A   Clear